SCP
0 1 1 1 1 -0 -0 0 -0 -0 -0 0 0 0 0 0 0 0 0 0 0 0
0 0 0 0 0 0 -0 0 -0 -0 -0 -0 0 0 0 0 0 0 0 0 0 0
-0 -0 -0 -0 0 0 0 -0 -0 0 0 0 0 -0 0 0 0 0 0 0 0 0
0 -0 -0 -0 -0 -0 -0 0 -0 -0 -0 0 0 -0 -0 -0 0 0 0 0 0 0
0 -0 -0 -0 -0 -0 -0 -0 -0 -0 -0 -0 -0 -0 -0 -0 0 0 0 0 0 0
0 0 -0 -0 -0 0 0 0 0 0 -0 0 0 -0 -0 0 0 0 0 0 0 0
0 0 0 0 -0 -0 0 0 0 0 0 -0 0 0 0 0 0 0 0 0 0 0
1 1 0 0 0 0 0 0 0 0 0 0 0 0 0 0 0 0 0 0 0 0
2 1 1 0 0 0 0 0 0 0 0 0 0 0 0 0 0 0 0 0 0 0
2 1 1 1 0 0 0 0 0 0 0 0 0 0 0 0 0 0 0 0 0 0
3 2 1 1 0 1 1 1 1 0 0 0 0 0 0 0 0 0 0 0 0 0
2 2 1 1 1 1 1 1 1 1 0 0 0 0 0 0 0 0 0 0 0 0
0 0 0 0 0 0 1 0 0 0 0 0 0 0 0 0 0 0 0 0 0 0
0 0 0 0 0 0 0 0 0 0 0 0 0 0 0 0 0 0 0 0 0 0
Wind_Speed_500mb
51 43 38 38 31 30 35 40 37 39 39 41 39 34 29 28 37 44 43 44 47 49
45 39 34 26 27 20 23 32 39 35 34 34 36 36 33 28 30 35 36 36 40 43
46 37 36 35 35 36 19 19 24 25 26 30 33 37 37 31 30 35 38 35 33 35
46 38 41 35 36 29 23 23 21 20 21 23 25 30 34 33 32 33 34 35 34 34
41 42 42 38 34 25 23 23 21 20 22 24 27 29 30 31 32 30 33 37 39 37
40 44 38 34 37 32 25 22 21 22 23 26 28 28 29 29 30 30 30 31 32 31
44 43 36 30 32 30 24 20 21 22 24 27 29 28 29 29 28 27 30 31 31 31
42 40 34 29 29 28 23 18 20 24 26 28 29 30 30 28 29 27 26 31 32 33
43 40 33 30 27 26 25 22 21 23 26 26 29 30 29 30 31 29 33 34 33 34
42 38 31 28 26 26 29 27 25 24 26 28 28 29 31 33 36 38 36 35 32 32
37 34 30 28 31 29 31 31 31 31 30 32 30 29 31 32 36 37 37 35 33 32
30 27 33 32 33 33 33 36 40 41 40 41 37 33 35 34 39 43 42 39 37 38
15 20 27 29 29 35 33 38 41 43 46 47 49 46 43 45 47 49 50 51 46 42
13 16 21 22 27 33 34 37 42 47 47 52 54 52 52 54 63 64 54 54 55 55
Wind_Direction_500mb
225 229 248 264 247 254 250 241 236 234 235 236 232 239 241 241 226 219 217 220 229 239
213 222 244 245 222 209 213 234 235 242 236 231 233 237 229 226 219 217 219 228 235 239
207 220 227 224 213 220 245 242 240 245 249 243 240 230 221 218 210 211 214 218 228 233
205 220 218 223 214 218 247 249 252 253 246 245 229 216 215 217 212 213 210 217 222 238
213 213 216 218 215 241 246 249 247 244 234 220 215 213 216 216 214 220 220 227 238 234
218 211 210 217 228 239 236 241 241 238 228 221 215 213 212 215 217 225 226 227 227 228
215 210 212 220 227 225 228 232 234 230 228 222 217 221 221 222 226 228 226 224 225 230
195 201 212 223 226 226 228 233 232 227 224 225 228 226 223 223 228 225 231 232 233 233
188 198 211 219 221 232 230 233 238 240 233 230 234 229 228 227 228 233 242 238 237 240
192 205 218 227 228 239 238 238 240 244 247 241 238 236 240 239 241 244 240 236 238 231
212 212 236 250 249 247 247 246 250 251 251 253 250 242 245 246 243 238 238 234 234 232
208 217 244 245 249 250 252 253 254 256 255 253 254 251 245 245 247 242 237 237 234 232
179 229 238 242 250 254 252 256 259 261 265 262 255 252 249 245 246 248 244 236 238 234
234 233 247 248 254 260 261 256 260 263 264 264 268 263 256 252 247 243 241 235 238 236
Wind_Speed_850mb
51 43 38 38 31 30 35 40 37 39 39 41 39 34 29 28 37 44 43 44 47 49
45 39 34 26 27 20 23 32 39 35 34 34 36 36 33 28 30 35 36 36 40 43
46 37 36 35 35 36 19 19 24 25 26 30 33 37 37 31 30 35 38 35 33 35
46 38 41 35 36 29 23 23 21 20 21 23 25 30 34 33 32 33 34 35 34 34
41 42 42 38 34 25 23 23 21 20 22 24 27 29 30 31 32 30 33 37 39 37
40 44 38 34 37 32 25 22 21 22 23 26 28 28 29 29 30 30 30 31 32 31
44 43 36 30 32 30 24 20 21 22 24 27 29 28 29 29 28 27 30 31 31 31
42 40 34 29 29 28 23 18 20 24 26 28 29 30 30 28 29 27 26 31 32 33
43 40 33 30 27 26 25 22 21 23 26 26 29 30 29 30 31 29 33 34 33 34
42 38 31 28 26 26 29 27 25 24 26 28 28 29 31 33 36 38 36 35 32 32
37 34 30 28 31 29 31 31 31 31 30 32 30 29 31 32 36 37 37 35 33 32
30 27 33 32 33 33 33 36 40 41 40 41 37 33 35 34 39 43 42 39 37 38
15 20 27 29 29 35 33 38 41 43 46 47 49 46 43 45 47 49 50 51 46 42
13 16 21 22 27 33 34 37 42 47 47 52 54 52 52 54 63 64 54 54 55 55
Wind_Direction_850mb
225 229 248 264 247 254 250 241 236 234 235 236 232 239 241 241 226 219 217 220 229 239
213 222 244 245 222 209 213 234 235 242 236 231 233 237 229 226 219 217 219 228 235 239
207 220 227 224 213 220 245 242 240 245 249 243 240 230 221 218 210 211 214 218 228 233
205 220 218 223 214 218 247 249 252 253 246 245 229 216 215 217 212 213 210 217 222 238
213 213 216 218 215 241 246 249 247 244 234 220 215 213 216 216 214 220 220 227 238 234
218 211 210 217 228 239 236 241 241 238 228 221 215 213 212 215 217 225 226 227 227 228
215 210 212 220 227 225 228 232 234 230 228 222 217 221 221 222 226 228 226 224 225 230
195 201 212 223 226 226 228 233 232 227 224 225 228 226 223 223 228 225 231 232 233 233
188 198 211 219 221 232 230 233 238 240 233 230 234 229 228 227 228 233 242 238 237 240
192 205 218 227 228 239 238 238 240 244 247 241 238 236 240 239 241 244 240 236 238 231
212 212 236 250 249 247 247 246 250 251 251 253 250 242 245 246 243 238 238 234 234 232
208 217 244 245 249 250 252 253 254 256 255 253 254 251 245 245 247 242 237 237 234 232
179 229 238 242 250 254 252 256 259 261 265 262 255 252 249 245 246 248 244 236 238 234
234 233 247 248 254 260 261 256 260 263 264 264 268 263 256 252 247 243 241 235 238 236